Flag for Croatia

Past Weather in Zagreb, Croatia — Yesterday and Last 2 Weeks

Now
54 °F

Clear.


Feels Like: 50 °F
Forecast: 65 / 56 °F
Wind: 10 mph from Southwest

Location: Zagreb / Pleso
Current Time: Oct 23, 2020 at 2:38:06 am
Latest Report: Oct 23, 2020 at 2:00 am
Visibility: 10 mi
Pressure30.12 "Hg
Humidity: 88%
Dew Point: 50 °F
Location of ZagrebLocation

Past Weather in Zagreb — Graph

°F

Zagreb Temperature Yesterday

Maximum temperature yesterday: 72 °F (at 3:30 pm)
Minimum temperature yesterday: 45 °F (at 6:30 am)
Average temperature yesterday: 57 °F

High & Low Weather Summary for the Past Weeks

 TemperatureHumidityPressure
High72 °F (Oct 22, 3:30 pm)100% (Oct 8, 7:00 am)30.33 "Hg (Oct 8, 7:00 am)
Low36 °F (Oct 19, 4:00 am)40% (Oct 8, 2:30 pm)29.74 "Hg (Oct 13, 1:30 pm)
Average51 °F83%30.04 "Hg
* Reported Oct 8 1:00 am — Oct 23 1:00 am, Zagreb. Weather by CustomWeather, © 2020

Note: Actual official high and low records may vary slightly from our data, if they occured in-between our weather recording intervals... More about our weather records

Zagreb Weather History for the Previous 24 Hours

Scroll right to see more
 ConditionsComfort  
Time TempWeatherWind HumidityBarometerVisibility
1:00 am
Fri, Oct 23
52 °FClear.1 mph88%30.12 "Hg10 mi
12:30 am54 °FPassing clouds.7 mph88%30.12 "HgN/A
12:00 am50 °FClear.6 mph94%30.12 "Hg10 mi
11:30 pm
Thu, Oct 22
52 °FClear.7 mph88%30.15 "Hg10 mi
11:00 pm54 °FClear.No wind82%30.15 "Hg10 mi
10:30 pm54 °FPassing clouds.6 mph82%30.15 "HgN/A
10:00 pm54 °FClear.7 mph82%30.15 "Hg10 mi
9:30 pm54 °FClear.5 mph82%30.15 "Hg10 mi
9:00 pm55 °FPassing clouds.5 mph77%30.15 "HgN/A
8:30 pm57 °FClear.5 mph77%30.15 "Hg10 mi
8:00 pm57 °FClear.6 mph77%30.15 "Hg10 mi
7:30 pm57 °FClear.6 mph77%30.15 "Hg10 mi
7:00 pm57 °FClear.7 mph77%30.15 "Hg10 mi
6:30 pm59 °FClear.8 mph72%30.12 "Hg10 mi
6:00 pm61 °FClear.7 mph68%30.12 "Hg10 mi
5:30 pm64 °FSunny.7 mph60%30.12 "Hg10 mi
5:00 pm68 °FSunny.10 mph53%30.12 "Hg10 mi
4:30 pm70 °FPassing clouds.14 mph46%30.12 "HgN/A
4:00 pm70 °FPassing clouds.14 mph46%30.12 "HgN/A
3:30 pm72 °FPassing clouds.12 mph44%30.12 "HgN/A
3:00 pm70 °FPassing clouds.14 mph46%30.12 "HgN/A
2:30 pm70 °FPassing clouds.12 mph46%30.12 "HgN/A
2:00 pm70 °FPassing clouds.15 mph46%30.12 "HgN/A
1:30 pm70 °FPassing clouds.15 mph50%30.15 "HgN/A
1:00 pm68 °FPassing clouds.14 mph53%30.15 "HgN/A
12:30 pm68 °FPassing clouds.15 mph53%30.15 "HgN/A
12:00 pm66 °FPassing clouds.13 mph56%30.18 "HgN/A
11:30 am64 °FPassing clouds.17 mph56%30.18 "HgN/A
11:00 am64 °FPassing clouds.14 mph60%30.18 "HgN/A
10:30 am61 °FSunny.15 mph68%30.15 "Hg10 mi
10:00 am59 °FPassing clouds.10 mph72%30.15 "HgN/A
9:30 am55 °FPassing clouds.8 mph77%30.15 "HgN/A
9:00 am54 °FPassing clouds.6 mph82%30.15 "HgN/A
8:30 am50 °FSunny.No wind88%30.15 "Hg10 mi
8:00 am48 °FSunny.6 mph87%30.15 "Hg10 mi
7:30 am46 °FPassing clouds.6 mph93%30.12 "HgN/A
7:00 am46 °FClear.3 mph87%30.12 "Hg10 mi
6:30 am45 °FPassing clouds.3 mph93%30.12 "HgN/A
6:00 am46 °FClear.6 mph87%30.12 "Hg10 mi
5:30 am46 °FClear.2 mph87%30.12 "Hg10 mi
5:00 am50 °FClear.7 mph82%30.12 "Hg10 mi
4:30 am48 °FPassing clouds.5 mph82%30.12 "HgN/A
4:00 am50 °FPassing clouds.6 mph82%30.12 "HgN/A
3:30 am52 °FClear.9 mph77%30.12 "Hg10 mi
3:00 am50 °FClear.9 mph82%30.12 "Hg10 mi
2:30 am50 °FClear.7 mph82%30.12 "Hg10 mi
2:00 am50 °FClear.7 mph76%30.12 "Hg10 mi
Weather by CustomWeather, © 2020

See weather overview